Powrót do katalogu

STARLINK-36867

AktywnyŁącznośćSSO
NORAD 67983·PAYLOAD·🇺🇸 United States

Wystrzelony Feb 25, 2026 z Vandenberg Space Force Base

Loading…

Następne Przeloty (najbliższe 24 godziny)

TLE

ŚwieżeSource: CelesTrak SupGP

Epoka: Sep 14, 2026, 21:08 UTC

1 67983C 26038Y   26257.88104167  .00020469  00000+0  63508-3 0  2571
2 67983  97.2840 266.3789 0001579 100.4710  38.8644 15.33445138    12

Śledź STARLINK-36867 w czasie rzeczywistym z AllMySat

Download on the App Store